Home > Weather > Asheville > Past weeks

Flag for USA Weather for the Past 2 Weeks in Asheville, North Carolina, USA

Now
75 °F

Scattered clouds.


Feels Like: 78 °F
Forecast: 58 / 76 °F
Wind: 10 mph from Southeast

Location: Asheville Regional Airport

Current Time: Apr 30, 2016 at 5:12:55 PM

Latest Report: Apr 30, 2016 at 3:54 PM


Visibility: 10 mi

Pressure: 29.96 "Hg (27.81 "Hg at 647m altitude)

Humidity: 55%

Dew Point: 58 °F

Location of AshevilleLocation

Historic Weather in Asheville — Graph

°F

Asheville Temperature Yesterday

Maximum temperature yesterday: 81 °F (at 3:54 PM)
Minimum temperature yesterday: 58 °F (at 5:54 AM)
Average temperature yesterday: 70 °F

High & Low Weather Summary for the Past Weeks

 TemperatureHumidityPressure
High82 °F (Apr 28, 1:54 PM)93% (Apr 22, 11:54 PM)30.43 "Hg (Apr 22, 11:54 PM)
Low36 °F (Apr 16, 6:54 AM)14% (Apr 17, 4:54 PM)29.79 "Hg (Apr 27, 4:54 PM)
Average63 °F56%30.06 "Hg
* Reported Apr 15 3:54 PM — Apr 30 3:54 PM, Asheville, Weather by CustomWeather, © 2016

Note: Actual official high and low records may vary slightly from our data, if they occured in-between our weather recording intervals... More about our weather records

Advertising

Asheville Weather History for the Previous 24 Hours

Scroll right to see more
 ConditionsComfort  
Time TempWeatherWind HumidityBarometerVisibility
3:54 PM
Sat, Apr 30
75 °FScattered clouds.10 mph55%29.96 "Hg10 mi
2:54 PM75 °FPartly sunny.13 mph54%29.98 "Hg10 mi
1:54 PM72 °FPartly sunny.10 mph57%30.00 "Hg10 mi
12:54 PM70 °FOvercast.12 mph61%30.02 "Hg10 mi
11:54 AM70 °FPartly sunny.7 mph59%30.03 "Hg10 mi
10:54 AM69 °FPartly sunny.9 mph53%30.04 "Hg10 mi
9:54 AM67 °FSunny.6 mph55%30.02 "Hg10 mi
8:54 AM62 °FSunny.No wind67%30.01 "Hg10 mi
7:54 AM57 °FSunny.3 mph81%30.00 "Hg10 mi
6:54 AM55 °FClear.3 mph87%30.00 "Hg10 mi
5:54 AM58 °FClear.No wind75%29.97 "Hg10 mi
4:54 AM59 °FPassing clouds.No wind75%29.96 "Hg10 mi
3:54 AM61 °FClear.No wind70%29.96 "Hg10 mi
2:54 AM60 °FClear.No wind75%29.96 "Hg10 mi
1:54 AM62 °FClear.No wind65%29.98 "Hg10 mi
12:54 AM65 °FClear.5 mph54%29.98 "Hg10 mi
11:54 PM
Fri, Apr 29
68 °FClear.6 mph47%29.99 "Hg10 mi
10:54 PM68 °FClear.3 mph47%30.00 "Hg10 mi
9:54 PM69 °FPassing clouds.7 mph45%29.99 "Hg10 mi
8:54 PM72 °FOvercast.3 mph40%29.98 "Hg10 mi
7:54 PM74 °FPartly sunny.10 mph37%29.96 "Hg10 mi
6:54 PM76 °FSunny.8 mph31%29.94 "Hg10 mi
5:54 PM79 °FPartly sunny.8 mph27%29.94 "Hg10 mi
Weather by CustomWeather, © 2016

See weather overviewHow to use our weather pages